IGO1104 VGHS-VECC

Flight info

Callsign IGO1104
Flight time 0h 34m
Altitude 20000
Route IKOGU1D IKOGU A462 BEMAK BEMAK2A
Aircraft A320/M-SDE3FGHIRWY/LB1

Departure

Time 2026-04-23 14:16
Airport Hazrat Shahjalal International Airport (VGHS)

Arrival

Time 2026-04-23 14:50
Airport Netaji Subhash Chandra Bose International Airport (VECC)
Time Latitude Longitude Altitude Speed Heading
2026-04-23 14:01 23.84687 90.40480 36 ft 0 kts 53°
2026-04-23 14:06 23.84675 90.40463 36 ft 4 kts 51°
2026-04-23 14:06 23.84657 90.40441 34 ft 4 kts 45°
2026-04-23 14:06 23.84637 90.40422 34 ft 4 kts 29°
2026-04-23 14:06 23.84614 90.40414 23 ft 4 kts 338°
2026-04-23 14:07 23.84605 90.40419 37 ft 1 kts 325°
2026-04-23 14:08 23.84607 90.40417 36 ft 3 kts 325°
2026-04-23 14:09 23.84654 90.40380 36 ft 14 kts 324°
2026-04-23 14:09 23.84677 90.40293 36 ft 15 kts 235°
2026-04-23 14:09 23.84658 90.40196 36 ft 15 kts 304°
2026-04-23 14:09 23.84743 90.40123 36 ft 17 kts 324°
2026-04-23 14:10 23.84843 90.40043 34 ft 19 kts 323°
2026-04-23 14:10 23.84957 90.39953 36 ft 21 kts 324°
2026-04-23 14:10 23.85084 90.39851 36 ft 24 kts 324°
2026-04-23 14:10 23.85225 90.39740 36 ft 26 kts 324°
2026-04-23 14:11 23.85377 90.39616 34 ft 28 kts 323°
2026-04-23 14:11 23.85544 90.39485 36 ft 31 kts 324°
2026-04-23 14:11 23.85722 90.39345 36 ft 32 kts 323°
2026-04-23 14:11 23.85739 90.39231 36 ft 13 kts 226°
2026-04-23 14:12 23.85681 90.39143 36 ft 15 kts 237°
2026-04-23 14:12 23.85610 90.39039 36 ft 19 kts 233°
2026-04-23 14:12 23.85531 90.38921 35 ft 18 kts 231°
2026-04-23 14:12 23.85463 90.38881 34 ft 8 kts 140°
2026-04-23 14:13 23.85397 90.38938 35 ft 21 kts 143°
2026-04-23 14:13 23.85130 90.39147 35 ft 81 kts 145°
2026-04-23 14:13 23.84515 90.39637 37 ft 136 kts 144°
2026-04-23 14:13 23.83653 90.40325 254 ft 163 kts 144°
2026-04-23 14:14 23.83308 90.40597 410 ft 171 kts 144°
2026-04-23 14:16 23.83034 90.40805 475 ft 180 kts 146°
2026-04-23 14:16 23.81937 90.41618 905 ft 198 kts 145°
2026-04-23 14:16 23.80779 90.42519 1429 ft 207 kts 144°
2026-04-23 14:16 23.79590 90.43486 1860 ft 223 kts 143°
2026-04-23 14:17 23.78266 90.44539 2215 ft 247 kts 150°
2026-04-23 14:17 23.76964 90.45167 2625 ft 260 kts 165°
2026-04-23 14:17 23.76305 90.45333 2901 ft 262 kts 172°
2026-04-23 14:17 23.75379 90.45421 3310 ft 264 kts 181°
2026-04-23 14:18 23.74496 90.45360 3629 ft 266 kts 189°
2026-04-23 14:18 23.72740 90.44755 4403 ft 266 kts 208°
2026-04-23 14:18 23.71235 90.43594 5277 ft 268 kts 226°
2026-04-23 14:18 23.70105 90.41971 6073 ft 271 kts 244°
2026-04-23 14:19 23.69486 90.40035 6841 ft 272 kts 262°
2026-04-23 14:19 23.69322 90.37970 7615 ft 275 kts 268°
2026-04-23 14:19 23.69205 90.35887 8427 ft 277 kts 268°
2026-04-23 14:19 23.69088 90.33777 9226 ft 280 kts 268°
2026-04-23 14:20 23.68970 90.31644 9938 ft 286 kts 268°
2026-04-23 14:20 23.68846 90.29394 10145 ft 309 kts 268°
2026-04-23 14:20 23.68708 90.26987 10461 ft 324 kts 268°
2026-04-23 14:20 23.68561 90.24496 11012 ft 331 kts 268°
2026-04-23 14:21 23.68410 90.21974 11589 ft 337 kts 267°
2026-04-23 14:21 23.68154 90.19414 12147 ft 343 kts 259°
2026-04-23 14:21 23.67407 90.16921 12702 ft 350 kts 246°
2026-04-23 14:21 23.66166 90.14617 13256 ft 355 kts 236°
2026-04-23 14:22 23.64770 90.12364 13776 ft 360 kts 237°
2026-04-23 14:22 23.63367 90.10087 14282 ft 364 kts 237°
2026-04-23 14:22 23.61953 90.07787 14789 ft 367 kts 237°
2026-04-23 14:22 23.60522 90.05456 15307 ft 371 kts 237°
2026-04-23 14:23 23.59104 90.03093 15819 ft 375 kts 238°
2026-04-23 14:23 23.57727 90.00666 16343 ft 378 kts 239°
2026-04-23 14:23 23.56368 89.98195 16873 ft 381 kts 239°
2026-04-23 14:23 23.55010 89.95698 17395 ft 385 kts 239°
2026-04-23 14:24 23.53635 89.93179 17921 ft 389 kts 239°
2026-04-23 14:24 23.52237 89.90641 18385 ft 392 kts 239°
2026-04-23 14:24 23.50820 89.88092 18876 ft 394 kts 238°
2026-04-23 14:24 23.49391 89.85532 19375 ft 397 kts 238°
2026-04-23 14:25 23.47952 89.82961 19656 ft 398 kts 238°
2026-04-23 14:25 23.46515 89.80391 19729 ft 393 kts 238°
2026-04-23 14:25 23.45574 89.78708 19741 ft 391 kts 238°
2026-04-23 14:25 23.43711 89.75373 19742 ft 389 kts 238°
2026-04-23 14:26 23.42304 89.72856 19741 ft 389 kts 238°
2026-04-23 14:26 23.41359 89.71163 19742 ft 389 kts 238°
2026-04-23 14:26 23.39505 89.67817 19736 ft 389 kts 238°
2026-04-23 14:26 23.38552 89.66122 19736 ft 389 kts 238°
2026-04-23 14:27 23.37117 89.63624 19736 ft 389 kts 237°
2026-04-23 14:27 23.35657 89.61141 19736 ft 389 kts 237°
2026-04-23 14:27 23.34181 89.58669 19737 ft 393 kts 236°
2026-04-23 14:27 23.32207 89.55387 19736 ft 390 kts 236°
2026-04-23 14:28 23.31202 89.53725 19734 ft 389 kts 236°
2026-04-23 14:28 23.29712 89.51263 19733 ft 389 kts 236°
2026-04-23 14:28 23.28224 89.48797 19734 ft 389 kts 236°
2026-04-23 14:28 23.26749 89.46341 19734 ft 389 kts 236°
2026-04-23 14:29 23.25269 89.43869 19735 ft 389 kts 236°
2026-04-23 14:29 23.23813 89.41439 19736 ft 389 kts 236°
2026-04-23 14:29 23.22336 89.38975 19736 ft 389 kts 236°
2026-04-23 14:29 23.20862 89.36516 19732 ft 389 kts 236°
2026-04-23 14:30 23.19384 89.34048 19732 ft 389 kts 236°
2026-04-23 14:30 23.17914 89.31594 19632 ft 384 kts 236°
2026-04-23 14:30 23.16471 89.29189 19395 ft 374 kts 236°
2026-04-23 14:30 23.15065 89.26849 19164 ft 366 kts 236°
2026-04-23 14:31 23.13684 89.24551 18936 ft 362 kts 236°
2026-04-23 14:31 23.12307 89.22263 18702 ft 360 kts 236°
2026-04-23 14:31 23.10939 89.19992 18477 ft 359 kts 236°
2026-04-23 14:31 23.09571 89.17724 18261 ft 358 kts 236°
2026-04-23 14:32 23.08207 89.15466 18037 ft 357 kts 236°
2026-04-23 14:32 23.06843 89.13212 17784 ft 356 kts 236°
2026-04-23 14:32 23.05489 89.10971 17531 ft 355 kts 236°
2026-04-23 14:32 23.04140 89.08737 17279 ft 353 kts 236°
2026-04-23 14:33 23.02795 89.06508 17022 ft 351 kts 236°
2026-04-23 14:33 23.01461 89.04295 16767 ft 350 kts 236°
2026-04-23 14:33 23.00130 89.02088 16532 ft 348 kts 236°
2026-04-23 14:33 22.98807 88.99900 16284 ft 346 kts 236°
2026-04-23 14:34 22.97486 88.97721 15979 ft 344 kts 236°
2026-04-23 14:34 22.96180 88.95561 15618 ft 341 kts 237°
2026-04-23 14:34 22.94883 88.93414 15252 ft 339 kts 237°
2026-04-23 14:34 22.93595 88.91283 14893 ft 337 kts 237°
2026-04-23 14:35 22.92302 88.89155 14556 ft 335 kts 237°
2026-04-23 14:35 22.90986 88.87083 14235 ft 332 kts 236°
2026-04-23 14:35 22.89652 88.85048 13909 ft 330 kts 235°
2026-04-23 14:35 22.88313 88.83030 13569 ft 329 kts 235°
2026-04-23 14:36 22.86984 88.81025 13213 ft 326 kts 236°
2026-04-23 14:36 22.85670 88.79034 12877 ft 323 kts 236°
2026-04-23 14:36 22.84470 88.77031 12559 ft 318 kts 245°
2026-04-23 14:36 22.83700 88.74799 12099 ft 316 kts 258°
2026-04-23 14:37 22.83441 88.72465 11550 ft 308 kts 272°
2026-04-23 14:37 22.83638 88.70191 11002 ft 300 kts 279°
2026-04-23 14:37 22.83912 88.67971 10471 ft 294 kts 279°
2026-04-23 14:37 22.84173 88.65796 9945 ft 288 kts 278°
2026-04-23 14:38 22.84426 88.63658 9394 ft 282 kts 278°
2026-04-23 14:38 22.84774 88.61594 8831 ft 275 kts 292°
2026-04-23 14:38 22.85911 88.59986 8263 ft 271 kts 325°
2026-04-23 14:38 22.87681 88.59368 7711 ft 273 kts 356°
2026-04-23 14:39 22.89573 88.59485 7170 ft 272 kts
2026-04-23 14:39 22.91438 88.59814 6627 ft 271 kts
2026-04-23 14:39 22.93287 88.60214 6097 ft 270 kts
2026-04-23 14:39 22.94335 88.60445 5778 ft 269 kts
2026-04-23 14:40 22.94777 88.60542 5633 ft 268 kts
2026-04-23 14:40 22.96606 88.60929 5088 ft 267 kts
2026-04-23 14:40 22.98432 88.61297 4547 ft 266 kts
2026-04-23 14:40 23.00249 88.61283 3990 ft 261 kts 343°
2026-04-23 14:41 23.01811 88.60349 3434 ft 258 kts 314°
2026-04-23 14:41 23.02738 88.58713 2895 ft 255 kts 284°
2026-04-23 14:41 23.02786 88.56825 2349 ft 251 kts 252°
2026-04-23 14:41 23.01955 88.55259 2046 ft 231 kts 219°
2026-04-23 14:42 23.00726 88.54276 2006 ft 211 kts 211°
2026-04-23 14:42 22.99484 88.53434 2009 ft 210 kts 210°
2026-04-23 14:42 22.98235 88.52610 2011 ft 210 kts 209°
2026-04-23 14:42 22.96984 88.51787 2015 ft 210 kts 209°
2026-04-23 14:43 22.95737 88.50970 2012 ft 208 kts 209°
2026-04-23 14:43 22.94490 88.50157 2013 ft 210 kts 209°
2026-04-23 14:43 22.93236 88.49344 2016 ft 209 kts 209°
2026-04-23 14:43 22.91939 88.48669 2016 ft 206 kts 198°
2026-04-23 14:44 22.90564 88.48218 2020 ft 206 kts 194°
2026-04-23 14:44 22.89206 88.47804 2021 ft 198 kts 194°
2026-04-23 14:44 22.87887 88.47475 2021 ft 192 kts 188°
2026-04-23 14:44 22.86571 88.47270 2020 ft 190 kts 186°
2026-04-23 14:45 22.85261 88.47103 2023 ft 189 kts 185°
2026-04-23 14:45 22.83961 88.46948 2024 ft 188 kts 185°
2026-04-23 14:45 22.82658 88.46794 2027 ft 188 kts 184°
2026-04-23 14:45 22.81381 88.46644 2043 ft 177 kts 184°
2026-04-23 14:46 22.80214 88.46506 2026 ft 162 kts 185°
2026-04-23 14:46 22.79130 88.46379 2022 ft 152 kts 185°
2026-04-23 14:46 22.78096 88.46258 1986 ft 148 kts 185°
2026-04-23 14:46 22.77080 88.46139 1860 ft 145 kts 185°
2026-04-23 14:47 22.76092 88.46023 1706 ft 140 kts 185°
2026-04-23 14:47 22.75155 88.45913 1568 ft 134 kts 185°
2026-04-23 14:47 22.74235 88.45805 1384 ft 132 kts 185°
2026-04-23 14:47 22.73318 88.45698 1209 ft 132 kts 185°
2026-04-23 14:48 22.72405 88.45591 1039 ft 131 kts 185°
2026-04-23 14:48 22.71503 88.45485 884 ft 131 kts 185°
2026-04-23 14:48 22.70614 88.45381 733 ft 130 kts 185°
2026-04-23 14:48 22.69701 88.45274 575 ft 130 kts 185°
2026-04-23 14:49 22.68801 88.45169 420 ft 131 kts 184°
2026-04-23 14:49 22.67897 88.45063 237 ft 130 kts 184°
2026-04-23 14:49 22.66992 88.44959 53 ft 130 kts 184°
2026-04-23 14:49 22.66163 88.44863 26 ft 102 kts 187°
2026-04-23 14:50 22.65624 88.44795 27 ft 54 kts 191°
2026-04-23 14:50 22.65360 88.44689 25 ft 35 kts 223°
2026-04-23 14:50 22.65199 88.44541 23 ft 26 kts 198°
2026-04-23 14:50 22.65031 88.44522 24 ft 24 kts 186°
2026-04-23 14:51 22.64862 88.44503 22 ft 25 kts 185°
2026-04-23 14:51 22.64694 88.44478 23 ft 21 kts 193°
2026-04-23 14:51 22.64666 88.44362 24 ft 18 kts 276°
2026-04-23 14:51 22.64678 88.44221 24 ft 17 kts 268°
2026-04-23 14:52 22.64586 88.44182 24 ft 16 kts 186°
2026-04-23 14:52 22.64488 88.44170 24 ft 11 kts 186°
2026-04-23 14:52 22.64456 88.44149 24 ft 6 kts 261°
2026-04-23 14:52 22.64458 88.44101 26 ft 5 kts 275°
2026-04-23 14:53 22.64460 88.44086 23 ft 1 kts 276°
2026-04-23 14:53 22.64460 88.44084 23 ft 0 kts 276°